カタログに戻る

NOAA 16 DEB

運用中SSO
NORAD 41196·DEBRIS·🇺🇸 United States

打ち上げ Sep 21, 2000 から Vandenberg Space Force Base

Loading…

次のパス (今後24時間)

TLE

最新Source: Space-Track

元期: Sep 13, 2026, 23:49 UTC

1 41196U 00055CZ  26256.99290224  .00001922  00000-0  10049-2 0  9999
2 41196  98.7339 276.2645 0053425  48.5140 312.0602 14.14804774550706

AllMySatでNOAA 16 DEBをリアルタイム追跡

Download on the App Store